This is the latest recevied weather packets stored in our database for station/object W3JGB. If no packets are shown the sender has not sent any weather packets the latest 10 day(s).
| Time | Temp. | Humidity | Pressure | Rain* | Wind** | Luminosity | Snow |
|---|---|---|---|---|---|---|---|
| 1777846586 | 15° C | 40% | 1011.7 hPa | 0 mm | - | 176 W/m² | - |
| 1777846282 | 15° C | 40% | 1011.9 hPa | 0 mm | - | 126 W/m² | - |
| 1777845979 | 15° C | 39% | 1011.8 hPa | 0 mm | - | 104 W/m² | - |
| 1777845676 | 15° C | 38% | 1011.7 hPa | 0 mm | - | 212 W/m² | - |
| 1777845373 | 15.56° C | 42% | 1011.6 hPa | 0 mm | - | 77 W/m² | - |
| 1777844768 | 16.11° C | 35% | 1011.7 hPa | 0 mm | - | 254 W/m² | - |
| 1777844163 | 15° C | 37% | 1011.6 hPa | 0 mm | - | 101 W/m² | - |
| 1777843859 | 15° C | 36% | 1011.6 hPa | 0 mm | - | 95 W/m² | - |
| 1777843556 | 15° C | 37% | 1011.5 hPa | 0 mm | - | 99 W/m² | - |
| 1777843254 | 15° C | 37% | 1011.4 hPa | 0 mm | - | 117 W/m² | - |
| 1777842951 | 15.56° C | 38% | 1011.8 hPa | 0 mm | - | 86 W/m² | - |
| 1777842646 | 15.56° C | 36% | 1011.3 hPa | 0 mm | - | 148 W/m² | - |
| 1777842343 | 15° C | 37% | 1011.5 hPa | 0 mm | - | 112 W/m² | - |
| 1777842039 | 15° C | 38% | 1011.5 hPa | 0 mm | - | 152 W/m² | - |
| 1777840224 | 15° C | 36% | 1011.7 hPa | 0 mm | - | 164 W/m² | - |
| 1777839918 | 15.56° C | 38% | 1011.4 hPa | 0 mm | - | 258 W/m² | - |
| 1777839616 | 15° C | 38% | 1011.7 hPa | 0 mm | - | 500 W/m² | - |
| 1777838404 | 15° C | 39% | 1011.7 hPa | 0 mm | - | 180 W/m² | - |
| 1777837195 | 14.44° C | 38% | 1011.8 hPa | 0 mm | - | 381 W/m² | - |
| 1777834767 | 15° C | 36% | 1012.5 hPa | 0 mm | - | 227 W/m² | - |
| 1777832649 | 14.44° C | 40% | 1012.6 hPa | 0 mm | - | 306 W/m² | - |
| 1777831437 | 14.44° C | 36% | 1012.8 hPa | 0 mm | - | 236 W/m² | - |
| 1777828107 | 13.89° C | 38% | 1013.5 hPa | 0 mm | - | 520 W/m² | - |
| 1777826894 | 12.78° C | 41% | 1013.7 hPa | 0 mm | - | 380 W/m² | - |
| 1777826287 | 12.78° C | 42% | 1013.8 hPa | 0 mm | - | 148 W/m² | - |
* Rain latest hour (hover to see other rain measurements)
** Current wind speed in m/s (hover to see current wind gust speed)